Preview of NWS' New Version of Forecast
This preview is not operational and should not be used for support decisions.

Regional Weather Roundup (RWR)

Issued by National Weather Service (NWS)

                            
000
ASUS43 KLSX 180207
RWRMO 

WEATHER SUMMARY FOR MISSOURI
NATIONAL WEATHER SERVICE SPRINGFIELD MO
900 PM CDT WED JUL 17 2019

NOTE: "FAIR" INDICATES FEW OR NO CLOUDS BELOW 12,000 FEET WITH NO
       SIGNIFICANT WEATHER AND/OR OBSTRUCTIONS TO VISIBILITY.
       CURRENT SKY AND/OR WEATHER CONDITIONS ARE NOT AVAILABLE FOR
       CHILLICOTHE AND FARMINGTON.

MOZ001>031-035>038-043-044-053-054-180300-
...NORTHERN AND WESTERN MISSOURI...
  
CITY           SKY/WX    TMP DP  RH WIND       PRES   REMARKS
KANSAS CTY INT PTCLDY    87  73  62 S13       29.84R HX  94           
KANSAS C DTWN  CLEAR     92  72  51 S13       29.83R HX  99           
LEE'S SUMMIT   CLEAR     88  72  58 S12       29.86S HX  94           
ST JOSEPH      CLEAR     88  74  63 S12       29.80R HX  96           
CHILLICOTHE      N/A     81  73  76 SE6       29.87R                  
KIRKSVILLE     CLEAR     75  66  73 SE10      29.90F                  
     
$$
MOZ066>068-077>081-088>096-101>105-180300-
...SOUTHWEST MISSOURI...
  
CITY           SKY/WX    TMP DP  RH WIND       PRES   REMARKS
SPRINGFIELD    CLEAR     84  72  67 S8        29.95R                  
JOPLIN         CLEAR     83  72  69 S9        29.93R                  
BRANSON        CLEAR     82  73  74 CALM      29.99S                  
               
$$
MOZ032>034-039>042-045>050-055>058-069>072-180300-
...CENTRAL MISSOURI...  
  
CITY           SKY/WX    TMP DP  RH WIND       PRES   REMARKS
COLUMBIA       CLEAR     73  69  87 SE9       29.95F                  
ROLLA          PTCLDY    71  70  96 SE15      30.00F                  
SEDALIA        CLEAR     81  78  91 S10       29.92S                  
WHITEMAN AFB   MOCLDY    85  76  75 SE7       29.86R HX  95           
WARRENSBURG    CLEAR     82  73  74 SE8       29.88R                  
OSAGE BEACH    CLEAR     79  72  79 E9G17     29.96S                  
               
$$
MOZ051-052-059>065-180300-
...EAST CENTRAL MISSOURI...
  
CITY           SKY/WX    TMP DP  RH WIND       PRES   REMARKS
ST LOUIS INTL  TSTM      74  70  87 S9        29.98F                  
SPIRIT OF STL  CLOUDY    73  70  90 SE7       29.97F                  
ST CHARLES       N/A    N/A N/A N/A MISG      29.94F                  
                   
$$
MOZ072>076-082>087-097>100-106>115-180300-
...SOUTH CENTRAL AND SOUTHEAST MISSOURI...
  
CITY           SKY/WX    TMP DP  RH WIND       PRES   REMARKS
CAPE GIRARDEAU LGT RAIN  75  70  84 N15G24    30.04R                  
FARMINGTON     TSTM      70  69  97 NE6       30.09F                  
POPLAR BLUFF   MOCLDY    78  74  87 NE5       29.98S                  
WEST PLAINS    CLEAR     83  76  79 CALM      30.01S HX  91           
                                       
$$